Location: Hilton Head Island
(32.2163°N, 80.7526°W)
Time: 15:19:03
(UTC-04:00)

Vanguard 1 - Pass Details

Date: 17 February 2026
Orbit: 653 x 3818 km, 34.2° (Epoch: 9 March)

Event Time Altitude Azimuth Distance (km) Brightness Sun altitude
Rises 16:37:50 0° 259° (W) 4,744 15.0 17.6°
Reaches altitude 10° 16:40:22 10° 260° (W) 4,063 15.0 17.2°
Maximum altitude 16:52:12 87° 350° (N) 2,644 12.5 14.9°
Drops below altitude 10° 17:13:33 10° 82° (E) 6,758 13.8 10.7°
Sets 17:19:16 0° 83° (E) 7,926 14.0 9.6°
